sat.trackr.live / text

‹ back to catalog

STARLINK-4370

NORAD 53231 · 2022-084AU

PAYLOAD ACTIVE UNKNOWN

§ Identity

Operator
Country
US
Launch date
2022-07-22
Launch site
AFWTR
Launch vehicle
Mass (kg)
RCS (m²)

Purposes: comms

External: N2YO · Heavens-Above · Gunter

§ Orbital elements

Epoch: 2026-09-19T23:13:54.098400Z

Period
93.91 min
Inclination
97.2843°
Eccentricity
0.0001274
Mean motion
15.33434852 rev/d
Perigee alt
464.7 km
Apogee alt
466.4 km
Semi-major
6,843.7 km
B*
2.5380e-5
RAAN
318.6944°
Arg perigee
95.2624°
Mean anomaly
264.8764°
Rev number
22,867

§ Raw data

STARLINK-43701 53231U 22084AU  26262.96798725  .00000744  00000+0  25380-4 0  99972 53231  97.2843 318.6944 0001274  95.2624 264.8764 15.33434852228676

JSON: /api/v1/satellites/53231 · /tle

For live sub-satellite position, see the globe view (requires WebGL).

§ Visibility from observer

Set your observer location to see the next 7 days of passes ≥ 10°. The values pass through the URL so the page stays shareable.

No JS? Fill the form by hand. The geolocation button needs JavaScript.